sat.trackr.live / text

‹ back to catalog

STARLINK-35609

NORAD 66100 · 2025-236Q

PAYLOAD ACTIVE UNKNOWN

§ Identity

Operator
Country
US
Launch date
2025-10-19
Launch site
AFWTR
Launch vehicle
Mass (kg)
RCS (m²)

Purposes: comms

External: N2YO · Heavens-Above · Gunter

§ Orbital elements

Epoch: 2026-09-20T12:50:19.432896Z

Period
93.85 min
Inclination
53.1590°
Eccentricity
0.0001262
Mean motion
15.34406401 rev/d
Perigee alt
461.8 km
Apogee alt
463.5 km
Semi-major
6,840.8 km
B*
3.5698e-4
RAAN
275.4789°
Arg perigee
56.2731°
Mean anomaly
303.8392°
Rev number
5,276

§ Raw data

STARLINK-356091 66100U 25236Q   26263.53494714  .00011706  00000+0  35698-3 0  99952 66100  53.1590 275.4789 0001262  56.2731 303.8392 15.34406401 52761

JSON: /api/v1/satellites/66100 · /tle

For live sub-satellite position, see the globe view (requires WebGL).

§ Visibility from observer

Set your observer location to see the next 7 days of passes ≥ 10°. The values pass through the URL so the page stays shareable.

No JS? Fill the form by hand. The geolocation button needs JavaScript.